Location: Nelson
(41.2830°S, 173.2830°E)
Time: 07:56:28
(UTC+12:00)

ISS - Pass Details

Date: 24 May 2025
Orbit: 415 x 416 km, 51.6° (Epoch: 16 June)

Event Time Altitude Azimuth Distance (km) Brightness Sun altitude
Exits shadow 05:52:39 17° 177° (S) 1,187 -1.6 -19.2°
Drops below altitude 10° 05:54:22 10° 148° (SSE) 1,531 -0.7 -18.9°
Sets 05:57:00 0° 127° (SE) 2,400 0.7 -18.4°
